Regional Weather Roundup
Issued by NWS Albany, NY

Home | Current Version | Previous Version | Text Only | Print | Product List | Glossary On
Versions: 1 2 3 4 5 6 7 8 9 10 11 12 13 14 15 16 17 18 19 20 21 22 23 24 25 26 27 28 29 30 31 32 33 34 35 36 37 38 39 40 41 42 43 44 45 46 47 48 49 50
000
ASUS41 KALY 241810
RWRALY

NEW YORK STATE HOURLY WEATHER ROUNDUP
NATIONAL WEATHER SERVICE ALBANY NY
200 PM EDT TUE MAY 24 2016

NOTE: "FAIR" INDICATES FEW OR NO CLOUDS BELOW 12,000 FEET WITH NO
SIGNIFICANT WEATHER AND/OR NO OBSTRUCTIONS TO VISIBILITY.

NYZ032-033-038>043-046>054-057>066-NYZ062>081-082-084-241900-
EAST


CITY           SKY/WX    TMP DP  RH WIND       PRES   REMARKS
ALBANY         CLOUDY    64  57  78 E3        29.95R
GLENS FALLS    PTSUNNY   70  51  51 SE6       29.92F
POUGHKEEPSIE   CLOUDY    68  54  60 N5        29.91S
NEWBURGH       PTSUNNY   66  55  68 VRB6      29.93F
MONTGOMERY     CLOUDY    70  56  61 E7        29.92R
WHITE PLAINS   LGT RAIN  66  56  70 NW12      29.91S
ISLIP          CLOUDY    68  56  65 NW10      29.89F
NEW YORK CITY  CLOUDY    71  61  70 VRB6      29.90F
CENTRAL PARK   PTSUNNY   70  58  65 CALM      29.94F
$$

NYZ005>009-017-018-044>046-055-056-241900-
CENTRAL


CITY           SKY/WX    TMP DP  RH WIND       PRES   REMARKS
FULTON         SUNNY     75  41  29 W12       29.96S
SYRACUSE       MOSUNNY   79  42  26 NW13      29.92F
ROME           SUNNY     78  53  41 W12       29.90F
ELMIRA         SUNNY     79  40  24 NW8       29.95F
BINGHAMTON     SUNNY     71  37  28 NW10G18   29.96S
MONTICELLO     CLOUDY    73  45  35 CALM      29.93S
$$

NYZ026>034-041>043-087-241900-
NORTH


CITY           SKY/WX    TMP DP  RH WIND       PRES   REMARKS
WATERTOWN      SUNNY     69  46  43 W12       29.94S
FORT DRUM      NOT AVBL
MASSENA        SUNNY     83  37  19 NW7       29.89F
SARANAC LAKE   CLOUDY    79  29  16 E8        29.89F
PLATTSBURGH    MOSUNNY   81  39  22 VRB6      29.87F
$$

NYZ001>004-010>016-019>021-085-241900-
WEST


CITY           SKY/WX    TMP DP  RH WIND       PRES   REMARKS
NIAGARA FALLS  MOSUNNY   76  51  41 S10       29.99S
BUFFALO        MOSUNNY   70  48  45 SW16      30.01F
DUNKIRK        SUNNY     73  45  36 SW14      30.03F
JAMESTOWN        N/A    N/A N/A N/A MISG        N/A
WELLSVILLE     SUNNY     75  39  27 NW14G23   30.04F
ROCHESTER      PTSUNNY   80  43  26 NW8       29.97F
PENN YAN       SUNNY     79  39  23 W10       29.97F
$$

             KEY
       WCI = WIND CHILL INDEX
       VSB = VISIBILITY
       HX  = HEAT INDEX
$$



USA.gov is the U.S. government's official web portal to all federal, state and local government web resources and services.